Weather History for KLVM - October, 2012

Change the Weather History Date:

Tuesday, October 16, 2012

  Actual Average Record
Temperature  
Mean Temperature 52 °F 45 °F  
Max Temperature 64 °F 59 °F 80 °F (1991)
Min Temperature 43 °F 32 °F 14 °F (1992)
Degree Days  
Heating Degree Days 12 20  
Month to date heating degree days 280  
Since 1 July heating degree days 689  
Cooling Degree Days 0 0  
Month to date cooling degree days 0  
Year to date cooling degree days 229  
Growing Degree Days 2 (Base 50)    
Moisture  
Dew Point 32 °F    
Average Humidity 47    
Maximum Humidity 82    
Minimum Humidity 25    
Precipitation  
Precipitation 0.05 in 0.05 in 1.48 in (2006)
Month to date precipitation 0.76  
Year to date precipitation 13.20  
Sea Level Pressure  
Sea Level Pressure 29.56 in    
Wind  
Wind Speed 27 mph (WSW)    
Max Wind Speed 44 mph    
Max Gust Speed 68 mph    
Visibility 10 miles    
Events Rain , Thunderstorm    
T = Trace of Precipitation, MM = Missing Value Source: NWS Daily Summary

Daily Weather History Graph

Daily Weather History Graph

Search for Another Location

Airport or City:

Trip Planner

Search our weather history database for the weather conditions in past years. The results will help you decide how hot, cold, wet, or windy it might be!

Date:

Astronomy

Oct. 16, 2012 Rise Set
Actual Time 7:40 AM MDT 6:33 PM MDT
Civil Twilight 7:10 AM MDT 7:03 PM MDT
Nautical Twilight 6:35 AM MDT 7:37 PM MDT
Astronomical Twilight 6:01 AM MDT 8:12 PM MDT
Moon 9:14 AM MDT (10/16) 7:12 PM MDT (10/16)
Length of Visible Light 11h 52m
Length of Day
10h 52m
New Moon, 2% of the Moon is Illuminated
Oct 16
New Moon
Oct 21
First Quarter
Oct 29
Full
Nov 6
Last Quarter
Nov 13
New

Hourly Weather History & Observations

Time (MDT) Temp. Windchill Dew Point Humidity Pressure Visibility Wind Dir Wind Speed Gust Speed Precip Events Conditions
12:53 AM 57.9 °F - 33.1 °F 39% 29.70 in 10.0 mi West 21.9 mph 39.1 mph N/A   Clear
1:53 AM 57.9 °F - 33.1 °F 39% 29.66 in 10.0 mi SW 27.6 mph 34.5 mph N/A   Clear
2:53 AM 57.9 °F - 33.1 °F 39% 29.62 in 10.0 mi SW 24.2 mph 33.4 mph N/A   Clear
4:53 AM 60.1 °F - 34.0 °F 38% 29.54 in 10.0 mi SW 38.0 mph 49.5 mph N/A   Partly Cloudy
6:53 AM 57.9 °F - 37.0 °F 46% 29.45 in 10.0 mi SW 32.2 mph 51.8 mph 0.00 in   Clear
7:53 AM 59.0 °F - 39.0 °F 48% 29.41 in 10.0 mi SW 36.8 mph 47.2 mph N/A   Clear
8:53 AM 60.1 °F - 39.0 °F 46% 29.41 in 10.0 mi SW 31.1 mph 42.6 mph N/A   Clear
9:53 AM 62.1 °F - 39.0 °F 43% 29.36 in 10.0 mi SW 43.7 mph 67.9 mph N/A   Clear
10:53 AM 55.0 °F - 45.0 °F 69% 29.40 in 9.0 mi SW 38.0 mph 48.3 mph 0.02 in Rain Light Rain
11:53 AM 54.0 °F - 41.0 °F 62% 29.52 in 10.0 mi NNW 26.5 mph 44.9 mph 0.00 in Rain Light Rain
12:00 PM 48.2 °F - 42.8 °F 82% 29.59 in 8.0 mi NW 23.0 mph 35.7 mph 0.01 in Rain Light Rain
12:09 PM 48.2 °F - 42.8 °F 82% 29.59 in 10.0 mi WNW 21.9 mph 36.8 mph 0.02 in Rain , Thunderstorm Light Thunderstorms and Rain
12:28 PM 48.2 °F - 42.8 °F 82% 29.55 in 10.0 mi SW 6.9 mph - 0.03 in Rain Light Rain
12:53 PM 50.0 °F - 42.1 °F 74% 29.43 in 10.0 mi Variable 3.5 mph - 0.03 in   Mostly Cloudy
1:53 PM 55.0 °F - 39.0 °F 55% 29.40 in 10.0 mi West 20.7 mph 28.8 mph N/A   Mostly Cloudy
2:53 PM 59.0 °F - 41.0 °F 51% 29.39 in 10.0 mi WSW 20.7 mph 34.5 mph N/A   Partly Cloudy
3:53 PM 57.9 °F - 27.0 °F 31% 29.42 in 10.0 mi West 27.6 mph 44.9 mph N/A   Mostly Cloudy
4:53 PM 54.0 °F - 19.9 °F 26% 29.51 in 10.0 mi WNW 25.3 mph 36.8 mph N/A   Overcast
5:53 PM 52.0 °F - 17.1 °F 25% 29.57 in 10.0 mi West 35.7 mph 44.9 mph N/A   Scattered Clouds
6:53 PM 48.9 °F - 18.0 °F 29% 29.61 in 10.0 mi West 38.0 mph 48.3 mph N/A   Partly Cloudy
7:53 PM 46.9 °F - 17.1 °F 30% 29.68 in 10.0 mi West 32.2 mph 47.2 mph N/A   Mostly Cloudy
8:53 PM 46.0 °F 36.2 °F 18.0 °F 33% 29.72 in 10.0 mi West 33.4 mph 42.6 mph N/A   Mostly Cloudy
9:53 PM 45.0 °F 36.9 °F 19.0 °F 36% 29.76 in 10.0 mi West 20.7 mph 35.7 mph N/A   Overcast
10:53 PM 43.0 °F 32.0 °F 17.1 °F 35% 29.78 in 10.0 mi West 33.4 mph 41.4 mph N/A   Partly Cloudy
11:53 PM 43.0 °F 33.1 °F 16.0 °F 34% 29.83 in 10.0 mi West 26.5 mph 32.2 mph N/A   Mostly Cloudy